Regional Weather Roundup
Issued by NWS

Home | Current Version | Previous Version | Text Only | Print | Product List | Glossary Off
Versions: 1 2 3 4 5 6 7 8 9 10 11 12 13 14 15 16 17 18 19 20 21 22 23 24 25 26 27 28 29 30 31 32 33 34 35 36 37 38 39 40 41 42 43 44 45 46 47 48 49 50

000
ASUS43 KDMX 182307
RWRIA

WEATHER ROUNDUP FOR IOWA
NATIONAL WEATHER SERVICE DES MOINES IA
600 PM CDT SAT APR 18 2015

NOTE: "FAIR" INDICATES FEW OR NO CLOUDS BELOW 12,000 FEET WITH NO
SIGNIFICANT WEATHER AND/OR OBSTRUCTIONS TO VISIBILITY.

* - THESE STATIONS ARE NOT NWS STATIONS...THUS NOT UNDER NWS
QUALITY CONTROL.  THEY ALSO DO NOT REPORT WEATHER SUCH
AS PRECIPITATION OR FOG.

IAZ001>003-012>014-020>022-031>034-043>046-190000-
   NORTHWEST IOWA

CITY           SKY/WX    TMP DP  RH WIND       PRES   REMARKS
CARROLL *      DRIZZLE   57  57 100 N6        29.86F
CHEROKEE *     LGT RAIN  59  59 100 E7        29.85F
DENISON *      MOSUNNY   59  59 100 SE9       29.85F FOG
LE MARS *      CLOUDY    61  57  88 SE8G15    29.85F
ORANGE CITY *  MOSUNNY  N/A N/A N/A E10       29.85F
SHELDON *      CLOUDY    57  57 100 SE14G20   29.85F FOG
SIOUX CITY     CLOUDY    62  56  80 SE12      29.82F
SPENCER        LGT RAIN  58  56  93 SE12      29.87F
STORM LAKE *   LGT RAIN  57  57 100 E12       29.87F
$$

IAZ055>058-069>071-079>083-090>094-190000-
   SOUTHWEST IOWA

CITY           SKY/WX    TMP DP  RH WIND       PRES   REMARKS
ATLANTIC *     CLOUDY    61  61 100 E3        29.86F
AUDUBON *      CLOUDY    59  55  88 NE5       29.87F
CLARINDA *     MOSUNNY   61  59  94 E8        29.87S
COUNCIL BLFS * MOSUNNY   59  59 100 E16       29.82F
CRESTON *      LGT RAIN  61  61 100 NE5       29.88F
HARLAN  *      CLOUDY    59  59 100 E12       29.88F
LAMONI         LGT RAIN  62  58  86 SE3       29.87F
RED OAK *      LGT RAIN  61  61 100 E12       29.84F
SHENANDOAH *   CLOUDY    61  61 100 E10G16    29.84F
$$

IAZ047>049-059>061-072>074-084-190000-
   CENTRAL IOWA

CITY           SKY/WX    TMP DP  RH WIND       PRES   REMARKS
AMES           CLOUDY    62  58  86 W7        29.86F
ANKENY *       CLOUDY    63  61  94 W6        29.87R
CHARITON *     LGT RAIN  61  61 100 S10       29.91R
DES MOINES     LGT RAIN  64  60  87 SW6       29.87R
GRINNELL*      CLOUDY    66  59  77 SW15      29.87R
KNOXVILLE *    RAIN      63  57  82 S24G30    29.89R
MARSHALLTOWN   TSTM      60  56  86 SW9       29.85F FOG
PELLA *        CLOUDY    66  59  77 S13       29.90R
PERRY *        CLOUDY    59  57  94 NW7       29.86F
$$

IAZ004>006-015-016-023>025-035-036-190000-
   NORTH CENTRAL IOWA

CITY           SKY/WX    TMP DP  RH WIND       PRES   REMARKS
ALGONA *       DRIZZLE   57  57 100 SE5       29.90F
CLARION *      LGT RAIN  59  59 100 W6        29.87F
ESTHERVILLE    CLOUDY    57  54  89 SE3       29.89F
FORT DODGE *   CLOUDY    57  55  94 NW6       29.87F
MASON CITY     LGT RAIN  61  32  33 W16       29.92R
FOREST CITY *  HVY RAIN  57  55  94 S3        29.91R
IOWA FALLS *   CLOUDY    61  57  88 E3        29.91R
$$

IAZ007>011-017>019-026>030-037>042-050>054-066-190000-
   NORTHEAST IOWA

CITY           SKY/WX    TMP DP  RH WIND       PRES   REMARKS
CEDAR RAPIDS   LGT RAIN  67  57  70 E15       29.87S
CHARLES CITY * LGT RAIN  68  50  52 SW13      29.90R
CLINTON *      CLOUDY    73  52  46 E16       29.94S
DECORAH *      SUNNY     70  39  32 E16G26    29.92S
DUBUQUE        PTSUNNY   70  39  32 E20G25    29.95S
MONTICELLO *   MOSUNNY   72  45  37 E15       29.90F
OELWEIN *      MOSUNNY   72  43  35 E24G31    29.89S
WATERLOO       CLOUDY    72  48  42 SE21      29.85F
$$

IAZ064-065-067-068-078-190000-
   EAST CENTRAL IOWA

CITY           SKY/WX    TMP DP  RH WIND       PRES   REMARKS
DAVENPORT      CLOUDY    72  54  53 E15       29.91F
IOWA CITY      PTSUNNY   72  55  55 E14G22    29.88S
MT. PLEASANT * PTSUNNY   77  50  38 SE12      29.87S
MUSCATINE *    SUNNY     79  48  34 SE13G20   29.87S
QUAD CITIES    PTSUNNY   74  54  49 E14       29.89F
$$

IAZ062-063-075>077-085>089-095>099-190000-
   SOUTHEAST IOWA

CITY           SKY/WX    TMP DP  RH WIND       PRES   REMARKS
BURLINGTON     PTSUNNY   78  52  40 S15G23    29.86F
FAIRFIELD *    MOSUNNY   75  52  43 S12       29.86S
FORT MADISON * MOSUNNY   79  52  38 S9G18     29.87S
KEOKUK *       MOSUNNY   77  54  44 SE12      29.86R
OSKALOOSA *      N/A     72  54  53 SW31G41   29.90R
CENTERVILLE *  LGT RAIN  59  59 100 CALM      29.91F
OTTUMWA        TSTM      63  55  75 SW18G31   29.89R
WASHINGTON *   MOSUNNY   77  54  44 SE14      29.86F
$$

ABBREVIATIONS USED IN REMARKS
   TC - TEMPERATURES IN CELSIUS
  WCI - WIND CHILL INDEX
   HX - HEAT INDEX
  VSB - VISIBILITY
$$




USA.gov is the U.S. government's official web portal to all federal, state and local government web resources and services.